Китаб

Uzbekistan     39˚07′01″N   64˚52′01″E
temp.,
°C
wind,
m/s
gust,
m/s
humid.,
%
clouds,
%
prec.,
mm/h
press.,
hPa
HPBL,
m
3 december, thu
thu323:00+5˚nnw455160 0.0 102791
02:00+4˚nnw45543 0.0 102783
05:00+2˚nnw45552 0.0 1028100
08:00+1˚n345854 0.0 102976
11:00+5˚nnw344775 0.0 1029250
14:00+8˚nw4440100 0.0 1027408
17:00+8˚nnw453699 0.0 1027318
20:00+6˚nnw4638100 0.0 1028169
4 december, fri
fri423:00+4˚nnw4641100 0.0 1028183
02:00+3˚nnw5744100 0.0 1028226
05:00+1˚nnw5746100 0.0 1028159
08:00nnw574666 0.0 1030147
11:00+3˚nnw563233 0.0 1030302
14:00+6˚nw55220 0.0 1029528
17:00+5˚nnw34230 0.0 1029354
20:00+3˚nnw45290 0.0 1031110
5 december, sat
sat523:00+1˚n34340 0.0 103180
02:00−1˚n34380 0.0 103165
05:00−2˚nne34580 0.0 103089
08:00−3˚n34610 0.0 103199
11:00+1˚n33400 0.0 1030288
14:00+4˚n44290 0.0 1027401
17:00+3˚n34300 0.0 1027200
20:00+1˚n463857 0.0 102897
6 december, sun
sun623:00−1˚n344829 0.0 102861
02:00−2˚n23540 0.0 102834
05:00−2˚nne23490 0.0 102827
08:00−1˚nne33430 0.0 102832
11:00+4˚nne33266 0.0 1028219
14:00+7˚nne442137 0.0 1024291
17:00+6˚n462268 0.0 1024129
20:00+5˚n5724100 0.0 1024107
7 december, mon
mon723:00+4˚n4636100 0.0 1024127
02:00+3˚nnw5733100 0.0 1024148
05:00+2˚nnw5639100 0.2 1026222
08:00nw2342100 0.3 1028263
11:00+2˚nw3336100 0.3 1029327
14:00+4˚nw332787 0.0 1028477
17:00+4˚nnw342473 0.0 1029304
20:00+2˚n342656 0.0 103099